Weather observations for the past three days for
Utopia Creek, Indian Mountain LRRS Airport
Imperial (Metric)
Date Time (akdt) Wind (mph) Vis. (mi.) Weather Sky Cond. Temperature (ºF) Relative Humidity Wind Chill (°F) Heat Index (°F) Pressure Precipitation (in)
Air Dwpt 6 hour altimeter (in) sea level (mb) 1 hr 3 hr 6 hr
Max. Min.
08 07:55 Vrbl 6 9.00 Light Rain Snow OVC011 32 30.2 93% 27 29.88 1013.6
08 06:55 E 8 10.00 Light Rain FEW014 BKN055 BKN090 34 23.7 66% 28 29.89 1013.8
08 05:55 Vrbl 7 10.00 Mostly Cloudy BKN055 33.8 21.2 60% 28 29.9 1014.2
08 04:55 Calm 10.00 Overcast OVC049 30.2 21.2 69% 29.92 1014.9
08 03:55 SW 5 10.00 Fair CLR 29.3 21.6 34.9 27.1 73% 25 29.92 1015.1
08 02:55 Calm 10.00 Fair CLR 28.4 19.4 69% 29.94 1015.9
08 01:55 Vrbl 2 10.00 Fair CLR 30.2 17.6 59% 29.95 1016.4
08 00:55 Vrbl 6 10.00 A Few Clouds FEW060 32.2 17.8 55% 27 29.96 1016.6
07 23:55 Vrbl 6 10.00 Mostly Cloudy BKN060 32 19.4 60% 27 29.97 1017.1
07 22:55 Vrbl 5 10.00 Mostly Cloudy BKN060 33.8 19.4 56% 30 29.98 1017.4
07 21:55 Vrbl 6 10.00 Mostly Cloudy BKN065 34.5 19 36.9 30.4 53% 30 29.98 1017.5
07 20:55 W 2 10.00 Mostly Cloudy BKN050 35.6 17.6 48% 29.99 1017.6
07 19:55 Calm 10.00 Mostly Cloudy BKN055 35.6 17.6 48% 29.98 1017.5
07 18:55 Vrbl 7 10.00 Mostly Cloudy BKN045 36.3 17.6 47% 31 29.99 1017.7
07 17:55 SE 8 10.00 Mostly Cloudy BKN049 BKN075 35.6 15.8 44% 30 29.99 1017.8
07 16:55 Vrbl 1 10.00 Mostly Cloudy BKN040 33.8 19.4 56% 30 1018.3
07 15:55 Vrbl 3 10.00 Mostly Cloudy BKN038 BKN065 31.8 17.6 31.3 23.4 56% 30.01 1018.5
07 14:55 SE 8 10.00 Overcast OVC045 30.2 17.6 59% 23 30.01 1018.7
07 13:55 E 7 10.00 Mostly Cloudy SCT026 BKN041 BKN055 28.4 19.4 69% 22 30.02 1018.9
07 12:55 SE 6 10.00 Mostly Cloudy BKN025 BKN060 27.5 18.5 69% 22 30.01 1018.6
07 11:55 Vrbl 2 6.00 Light Snow BKN021 BKN060 24.8 19.4 80% 30 1018.6
07 10:55 SE 3 7.00 Light Snow OVC025 24.8 17.6 74% 30 1018.4
07 09:55 Vrbl 1 4.00 Light Snow FEW018 OVC033 24.1 18.5 24.1 22.3 79% 30 1018.4
07 08:55 E 9 10.00 Light Snow OVC037 23 15.8 74% 14 29.99 1018.1
07 07:55 E 6 5.00 Light Snow OVC042 23 17.6 80% 17 29.99 1018.0
07 06:55 SE 2 2.50 Light Snow OVC033 23 18.9 84% 29.99 1017.8
07 05:55 SE 2 10.00 Light Snow OVC033 23 17.6 80% 29.98 1017.6
07 04:55 Calm 10.00 Light Showers Snow OVC048 23 15.8 74% 29.97 1017.3
07 03:55 SW 2 10.00 Light Showers Snow OVC050 23.2 16.9 27.1 23.2 77% 29.97 1017.2
07 02:55 Vrbl 5 10.00 Overcast OVC048 23 17.6 80% 18 29.97 1017.1
07 01:55 SW 6 10.00 Light Showers Snow OVC046 23 17.6 80% 17 29.96 1016.7
07 00:55 SW 6 10.00 Overcast OVC046 23.5 17.8 79% 17 29.94 1016.3
06 23:55 W 2 10.00 Overcast OVC055 24.8 14 63% 29.93 1016.1
06 22:55 W 7 10.00 Light Showers Snow BKN050 26.6 15.8 64% 20 29.93 1015.8
06 21:55 Vrbl 3 10.00 Mostly Cloudy BKN055 27 16.5 33.3 27.1 65% 29.92 1015.6
06 20:55 Vrbl 5 10.00 Mostly Cloudy BKN045 BKN110 28.4 15.8 59% 24 29.91 1015.2
06 19:55 W 5 10.00 Mostly Cloudy BKN038 BKN075 30.2 15.8 55% 26 29.9 1014.9
06 18:55 W 8 10.00 A Few Clouds FEW041 30.6 16 55% 24 29.9 1014.9
06 17:55 W 12 10.00 Fair CLR 32 15.8 51% 24 29.89 1014.3
06 16:55 SW 14 G 17 10.00 Fair CLR 32 14 47% 23 29.88 1013.9
06 15:55 W 10 10.00 Fair CLR 32.5 14.9 33.4 23 48% 25 29.88 1013.9
06 14:55 Vrbl 7 10.00 A Few Clouds FEW043 32 15.8 51% 26 29.87 1013.7
06 13:55 SW 9 10.00 Fair CLR 32 15.8 51% 25 29.87 1013.5
06 12:55 SW 13 G 16 10.00 Fair CLR 30.7 18.5 60% 22 29.86 1013.1
06 11:55 SW 14 10.00 Partly Cloudy SCT028 28.4 17.6 64% 18 29.85 1012.8
06 10:55 Vrbl 3 10.00 Partly Cloudy SCT024 26.6 19.4 74% 29.85 1012.7
06 09:55 SW 10 10.00 A Few Clouds FEW013 24.8 19.4 27.7 22.5 80% 15 29.83 1012.1
06 08:55 SW 15 10.00 Partly Cloudy SCT016 23 19.4 86% 11 29.82 1011.9
06 07:55 Vrbl 3 10.00 Partly Cloudy SCT020 23 19.4 86% 29.81 1011.3
06 06:55 Vrbl 7 10.00 A Few Clouds FEW018 24.1 20.1 85% 17 29.79 1010.7
06 05:55 Vrbl 5 10.00 A Few Clouds FEW021 24.8 19.4 80% 20 29.78 1010.3
06 04:55 W 6 10.00 Fair CLR 26.6 19.4 74% 21 29.77 1009.6
06 03:55 W 10 10.00 A Few Clouds FEW035 27 18 37 27.7 69% 18 29.75 1009.1
06 02:55 W 10 G 17 10.00 Fair CLR 28.4 17.6 64% 20 29.73 1008.3
06 01:55 Vrbl 7 10.00 Fair CLR 30.2 19.4 64% 24 29.72 1007.9
06 00:55 NW 12 G 18 10.00 Mostly Cloudy BKN095 31.6 21.7 67% 23 29.7 1007.1
05 23:55 NW 8 10.00 Partly Cloudy SCT095 33.8 23 65% 28 29.68 1006.7
05 22:55 Vrbl 3 10.00 A Few Clouds FEW100 33.8 21.2 60% 29.68 1006.5
05 21:55 Vrbl 7 10.00 Mostly Cloudy BKN090 36.7 21.9 42.3 36.9 55% 32 29.66 1005.9
05 20:55 Vrbl 6 10.00 Partly Cloudy SCT095 SCT100 37.4 21.2 52% 33 29.65 1005.4
05 19:55 W 8 10.00 Fair CLR 39.2 21.2 48% 34 29.64 1005.1
05 18:55 NW 10 10.00 A Few Clouds FEW110 40.8 19.9 43% 35 29.63 1004.5
05 17:55 NW 9 10.00 Fair CLR 41 19.4 42% 36 29.62 1004.3
05 16:55 NW 10 G 17 10.00 Partly Cloudy SCT070 41 21.2 45% 35 29.61 1004.0
05 15:55 W 8 10.00 A Few Clouds FEW065 41.4 19.2 41.4 33.4 41% 37 29.61 1003.8
05 14:55 W 9 G 17 10.00 Partly Cloudy SCT080 41 17.6 39% 36 29.61 1003.7
05 13:55 Vrbl 6 10.00 Mostly Cloudy SCT055 BKN080 39.2 21.2 48% 36 29.6 1003.7
05 12:55 NW 9 10.00 Mostly Cloudy BKN050 38.7 21 49% 33 29.6 1003.5
05 11:55 Vrbl 6 10.00 Overcast OVC031 35.6 24.8 65% 31 29.59 1003.3
05 10:55 W 8 10.00 Mostly Cloudy BKN021 33.8 28.4 81% 28 29.58 1003.1
05 09:55 NW 10 9.00 Light Showers Rain BKN025 34 29.1 35.2 32.9 82% 27 29.57 1002.8
05 08:55 NW 9 10.00 Overcast OVC050 33.8 30.2 87% 27 29.57 1002.6
Date Time (akdt) Wind (mph) Vis. (mi.) Weather Sky Cond. Air Dwpt Max. Min. Relative Humidity Wind Chill (°F) Heat Index (°F) altimeter (in) sea level (mb) 1 hr 3 hr 6 hr
6 hour
Temperature (ºF) Pressure Precipitation (in)